SHT5V EGAC-EGLL

Flight info

Callsign SHT5V
Flight time 0h 51m
Altitude 25000
Route DCT DUFFY L10 RINGA Q39 ETIGA DCT INKOB Q39 NOMSU UQ4 WAL UY53 NUGRA NUGRA2H
Aircraft A320/M-SDE3FGIJ1KRWXY/SB1

Departure

Time 2026-04-21 12:52
Airport George Best Belfast City Airport (EGAC)

Arrival

Time 2026-04-21 13:43
Airport London Heathrow Airport (EGLL)
Time Latitude Longitude Altitude Speed Heading
2026-04-21 11:41 54.61461 -5.87187 23 ft 0 kts 156°
2026-04-21 12:44 54.61470 -5.87194 25 ft 4 kts 156°
2026-04-21 12:44 54.61495 -5.87212 26 ft 4 kts 161°
2026-04-21 12:44 54.61521 -5.87223 23 ft 4 kts 183°
2026-04-21 12:44 54.61538 -5.87215 26 ft 0 kts 217°
2026-04-21 12:47 54.61526 -5.87229 23 ft 4 kts 215°
2026-04-21 12:47 54.61494 -5.87268 25 ft 7 kts 214°
2026-04-21 12:47 54.61445 -5.87326 23 ft 10 kts 215°
2026-04-21 12:47 54.61394 -5.87422 23 ft 12 kts 230°
2026-04-21 12:48 54.61320 -5.87520 23 ft 15 kts 215°
2026-04-21 12:48 54.61228 -5.87630 24 ft 17 kts 214°
2026-04-21 12:48 54.61131 -5.87745 23 ft 11 kts 214°
2026-04-21 12:48 54.61090 -5.87812 23 ft 0 kts 240°
2026-04-21 12:50 54.61085 -5.87839 26 ft 5 kts 258°
2026-04-21 12:51 54.61097 -5.87929 22 ft 10 kts 297°
2026-04-21 12:51 54.61150 -5.88021 22 ft 11 kts 356°
2026-04-21 12:51 54.61266 -5.87898 21 ft 46 kts 35°
2026-04-21 12:51 54.61726 -5.87353 28 ft 110 kts 34°
2026-04-21 12:52 54.62451 -5.86463 276 ft 132 kts 41°
2026-04-21 12:52 54.63183 -5.85550 886 ft 129 kts 43°
2026-04-21 12:52 54.63921 -5.84655 1388 ft 137 kts 43°
2026-04-21 12:52 54.64748 -5.83615 1652 ft 156 kts 48°
2026-04-21 12:53 54.65181 -5.81885 1938 ft 169 kts 88°
2026-04-21 12:53 54.64846 -5.79808 2156 ft 199 kts 124°
2026-04-21 12:53 54.63651 -5.78280 2647 ft 230 kts 146°
2026-04-21 12:53 54.62187 -5.76968 3506 ft 241 kts 147°
2026-04-21 12:54 54.60663 -5.75639 3834 ft 246 kts 148°
2026-04-21 12:54 54.59161 -5.74347 4383 ft 243 kts 148°
2026-04-21 12:54 54.57651 -5.73050 5489 ft 242 kts 148°
2026-04-21 12:54 54.56126 -5.71707 6364 ft 250 kts 148°
2026-04-21 12:55 54.54569 -5.70284 7243 ft 256 kts 147°
2026-04-21 12:55 54.52982 -5.68834 8114 ft 260 kts 148°
2026-04-21 12:55 54.51373 -5.67392 9023 ft 262 kts 149°
2026-04-21 12:55 54.49742 -5.65957 9968 ft 264 kts 150°
2026-04-21 12:56 54.48092 -5.64508 10704 ft 273 kts 150°
2026-04-21 12:56 54.46337 -5.62938 10971 ft 296 kts 150°
2026-04-21 12:56 54.44456 -5.61241 11341 ft 313 kts 150°
2026-04-21 12:56 54.42508 -5.59485 11987 ft 319 kts 150°
2026-04-21 12:57 54.40615 -5.57505 12772 ft 318 kts 141°
2026-04-21 12:57 54.38998 -5.54892 13458 ft 324 kts 130°
2026-04-21 12:57 54.37669 -5.51741 14143 ft 328 kts 125°
2026-04-21 12:57 54.36367 -5.48505 14794 ft 331 kts 125°
2026-04-21 12:58 54.35045 -5.45236 15381 ft 336 kts 125°
2026-04-21 12:58 54.33698 -5.41921 15959 ft 340 kts 125°
2026-04-21 12:58 54.32339 -5.38582 16568 ft 344 kts 125°
2026-04-21 12:58 54.30959 -5.35203 17134 ft 348 kts 126°
2026-04-21 12:59 54.30037 -5.32951 17553 ft 350 kts 125°
2026-04-21 12:59 54.28635 -5.29535 18208 ft 352 kts 125°
2026-04-21 12:59 54.27202 -5.26111 18815 ft 355 kts 127°
2026-04-21 12:59 54.25681 -5.22762 19357 ft 358 kts 129°
2026-04-21 13:00 54.24093 -5.19455 19883 ft 362 kts 130°
2026-04-21 13:00 54.22445 -5.16111 20224 ft 372 kts 130°
2026-04-21 13:00 54.20762 -5.12707 20671 ft 378 kts 130°
2026-04-21 13:00 54.19055 -5.09234 21059 ft 385 kts 130°
2026-04-21 13:01 54.17326 -5.05693 21459 ft 391 kts 130°
2026-04-21 13:01 54.15576 -5.02085 21826 ft 398 kts 130°
2026-04-21 13:01 54.13795 -4.98405 22157 ft 406 kts 130°
2026-04-21 13:01 54.11983 -4.94660 22520 ft 412 kts 130°
2026-04-21 13:02 54.10139 -4.90850 22850 ft 420 kts 130°
2026-04-21 13:02 54.08272 -4.87000 23305 ft 423 kts 130°
2026-04-21 13:02 54.04477 -4.79202 24138 ft 432 kts 130°
2026-04-21 13:03 54.02584 -4.75198 24493 ft 437 kts 129°
2026-04-21 13:03 54.00730 -4.71086 24894 ft 439 kts 127°
2026-04-21 13:03 53.98902 -4.66913 25286 ft 442 kts 127°
2026-04-21 13:03 53.97069 -4.62700 25650 ft 445 kts 127°
2026-04-21 13:04 53.95217 -4.58465 26006 ft 449 kts 128°
2026-04-21 13:04 53.93335 -4.54208 26361 ft 452 kts 128°
2026-04-21 13:04 53.91428 -4.49937 26696 ft 456 kts 129°
2026-04-21 13:04 53.89488 -4.45631 26910 ft 463 kts 129°
2026-04-21 13:05 53.87515 -4.41272 27166 ft 469 kts 129°
2026-04-21 13:05 53.85550 -4.36835 27474 ft 473 kts 128°
2026-04-21 13:05 53.83633 -4.32274 27809 ft 477 kts 126°
2026-04-21 13:05 53.81749 -4.27621 28133 ft 481 kts 126°
2026-04-21 13:06 53.79872 -4.22905 28457 ft 485 kts 126°
2026-04-21 13:06 53.77982 -4.18157 28790 ft 489 kts 126°
2026-04-21 13:06 53.76065 -4.13395 29155 ft 491 kts 126°
2026-04-21 13:06 53.74121 -4.08624 29496 ft 494 kts 126°
2026-04-21 13:07 53.72149 -4.03842 29808 ft 498 kts 127°
2026-04-21 13:07 53.70151 -3.99047 30135 ft 501 kts 127°
2026-04-21 13:07 53.68133 -3.94219 30443 ft 505 kts 127°
2026-04-21 13:07 53.66103 -3.89360 30671 ft 509 kts 127°
2026-04-21 13:08 53.64070 -3.84483 31085 ft 508 kts 127°
2026-04-21 13:08 53.62041 -3.79616 31581 ft 505 kts 127°
2026-04-21 13:08 53.60027 -3.74794 32151 ft 502 kts 127°
2026-04-21 13:08 53.58027 -3.70004 32711 ft 498 kts 127°
2026-04-21 13:09 53.56042 -3.65260 33295 ft 494 kts 127°
2026-04-21 13:09 53.54068 -3.60556 33905 ft 490 kts 127°
2026-04-21 13:09 53.52112 -3.55914 34559 ft 483 kts 127°
2026-04-21 13:09 53.50176 -3.51339 35088 ft 479 kts 126°
2026-04-21 13:10 53.48249 -3.46786 35326 ft 477 kts 126°
2026-04-21 13:10 53.46515 -3.42040 35405 ft 478 kts 117°
2026-04-21 13:10 53.43875 -3.31788 35405 ft 479 kts 113°
2026-04-21 13:11 53.41288 -3.21567 35384 ft 479 kts 113°
2026-04-21 13:11 53.38334 -3.11567 35385 ft 478 kts 125°
2026-04-21 13:12 53.34377 -3.02653 35381 ft 476 kts 128°
2026-04-21 13:12 53.30425 -2.93797 35383 ft 475 kts 127°
2026-04-21 13:13 53.26477 -2.84944 35384 ft 475 kts 127°
2026-04-21 13:13 53.22519 -2.76116 35400 ft 475 kts 128°
2026-04-21 13:14 53.18554 -2.67286 35377 ft 476 kts 128°
2026-04-21 13:14 53.14563 -2.58465 35376 ft 477 kts 128°
2026-04-21 13:15 53.10930 -2.50187 35390 ft 478 kts 125°
2026-04-21 13:15 53.07645 -2.42101 35401 ft 478 kts 124°
2026-04-21 13:16 53.03841 -2.33049 35398 ft 477 kts 132°
2026-04-21 13:16 52.98864 -2.26029 35394 ft 472 kts 150°
2026-04-21 13:17 52.93270 -2.20256 35234 ft 477 kts 150°
2026-04-21 13:17 52.90455 -2.17324 34994 ft 478 kts 150°
2026-04-21 13:17 52.87637 -2.14371 34758 ft 480 kts 150°
2026-04-21 13:18 52.84820 -2.11408 34529 ft 481 kts 150°
2026-04-21 13:18 52.81984 -2.08433 33727 ft 486 kts 150°
2026-04-21 13:18 52.79095 -2.05420 32704 ft 494 kts 151°
2026-04-21 13:18 52.76177 -2.02391 31875 ft 497 kts 151°
2026-04-21 13:19 52.73264 -1.99370 31345 ft 492 kts 151°
2026-04-21 13:19 52.70368 -1.96364 30707 ft 492 kts 152°
2026-04-21 13:19 52.67476 -1.93370 30020 ft 491 kts 152°
2026-04-21 13:19 52.64594 -1.90393 29382 ft 487 kts 151°
2026-04-21 13:20 52.61734 -1.87447 28761 ft 483 kts 151°
2026-04-21 13:20 52.58897 -1.84531 28142 ft 479 kts 150°
2026-04-21 13:20 52.56077 -1.81638 27518 ft 475 kts 150°
2026-04-21 13:20 52.53283 -1.78772 26907 ft 472 kts 150°
2026-04-21 13:21 52.50514 -1.75934 26302 ft 468 kts 150°
2026-04-21 13:21 52.47799 -1.73158 25730 ft 463 kts 150°
2026-04-21 13:21 52.45073 -1.70377 25161 ft 459 kts 149°
2026-04-21 13:21 52.42376 -1.67628 24618 ft 455 kts 149°
2026-04-21 13:22 52.39706 -1.64907 24073 ft 450 kts 149°
2026-04-21 13:22 52.37060 -1.62216 23509 ft 444 kts 149°
2026-04-21 13:22 52.34455 -1.59574 23012 ft 437 kts 148°
2026-04-21 13:22 52.31890 -1.56979 22491 ft 430 kts 148°
2026-04-21 13:23 52.29363 -1.54423 22005 ft 425 kts 148°
2026-04-21 13:23 52.26862 -1.51894 21497 ft 420 kts 148°
2026-04-21 13:23 52.24388 -1.49397 20981 ft 416 kts 148°
2026-04-21 13:23 52.21946 -1.46891 20472 ft 412 kts 143°
2026-04-21 13:24 52.19754 -1.43973 20156 ft 401 kts 138°
2026-04-21 13:24 52.17688 -1.41069 19796 ft 393 kts 138°
2026-04-21 13:24 52.15632 -1.38197 19390 ft 386 kts 138°
2026-04-21 13:24 52.13611 -1.35387 18977 ft 379 kts 139°
2026-04-21 13:25 52.11625 -1.32622 18532 ft 373 kts 138°
2026-04-21 13:25 52.09668 -1.29900 18050 ft 367 kts 138°
2026-04-21 13:25 52.07753 -1.27241 17677 ft 357 kts 138°
2026-04-21 13:25 52.05885 -1.24651 17311 ft 348 kts 138°
2026-04-21 13:26 52.04060 -1.22125 16955 ft 341 kts 137°
2026-04-21 13:26 52.02271 -1.19648 16563 ft 338 kts 137°
2026-04-21 13:26 52.00485 -1.17176 16215 ft 339 kts 138°
2026-04-21 13:26 51.98694 -1.14697 15870 ft 337 kts 138°
2026-04-21 13:27 51.96916 -1.12241 15528 ft 333 kts 137°
2026-04-21 13:27 51.95163 -1.09825 15133 ft 330 kts 136°
2026-04-21 13:27 51.93394 -1.07385 14370 ft 337 kts 137°
2026-04-21 13:27 51.91639 -1.04971 14207 ft 324 kts 137°
2026-04-21 13:28 51.89944 -1.02650 13983 ft 314 kts 136°
2026-04-21 13:28 51.88295 -1.00390 13705 ft 307 kts 137°
2026-04-21 13:28 51.86681 -0.98176 13430 ft 301 kts 137°
2026-04-21 13:28 51.85247 -0.95811 13163 ft 286 kts 122°
2026-04-21 13:29 51.84321 -0.93080 12902 ft 270 kts 114°
2026-04-21 13:29 51.83514 -0.90420 12637 ft 258 kts 114°
2026-04-21 13:29 51.82747 -0.87911 12376 ft 249 kts 114°
2026-04-21 13:29 51.81984 -0.85419 12123 ft 246 kts 114°
2026-04-21 13:30 51.81228 -0.82952 11861 ft 244 kts 114°
2026-04-21 13:30 51.80477 -0.80504 11613 ft 242 kts 114°
2026-04-21 13:30 51.79732 -0.78073 11359 ft 241 kts 114°
2026-04-21 13:30 51.78988 -0.75648 11116 ft 240 kts 115°
2026-04-21 13:31 51.78246 -0.73237 10869 ft 239 kts 115°
2026-04-21 13:31 51.77507 -0.70843 10618 ft 237 kts 115°
2026-04-21 13:31 51.76772 -0.68465 10377 ft 236 kts 114°
2026-04-21 13:31 51.76042 -0.66103 10122 ft 235 kts 114°
2026-04-21 13:32 51.75316 -0.63749 9845 ft 233 kts 114°
2026-04-21 13:32 51.74592 -0.61406 9569 ft 233 kts 114°
2026-04-21 13:32 51.73873 -0.59076 9315 ft 231 kts 114°
2026-04-21 13:32 51.73017 -0.56889 9116 ft 233 kts 130°
2026-04-21 13:33 51.71692 -0.55369 8857 ft 238 kts 152°
2026-04-21 13:33 51.70059 -0.54814 8502 ft 244 kts 173°
2026-04-21 13:33 51.68361 -0.54732 8240 ft 244 kts 172°
2026-04-21 13:33 51.66669 -0.54646 7982 ft 243 kts 172°
2026-04-21 13:34 51.64986 -0.54556 7726 ft 242 kts 173°
2026-04-21 13:34 51.63302 -0.54659 7472 ft 246 kts 188°
2026-04-21 13:34 51.61737 -0.55822 7212 ft 253 kts 215°
2026-04-21 13:34 51.60610 -0.58023 6965 ft 259 kts 243°
2026-04-21 13:35 51.60169 -0.60800 6718 ft 257 kts 265°
2026-04-21 13:35 51.60023 -0.63660 6461 ft 256 kts 265°
2026-04-21 13:35 51.59875 -0.66504 6195 ft 255 kts 265°
2026-04-21 13:35 51.59708 -0.69333 5940 ft 254 kts 265°
2026-04-21 13:36 51.59533 -0.72157 5677 ft 253 kts 264°
2026-04-21 13:36 51.59355 -0.74969 5413 ft 251 kts 263°
2026-04-21 13:36 51.58828 -0.77553 5151 ft 246 kts 232°
2026-04-21 13:36 51.57559 -0.79252 4899 ft 235 kts 198°
2026-04-21 13:37 51.56006 -0.79648 4656 ft 223 kts 172°
2026-04-21 13:37 51.54463 -0.79568 4392 ft 221 kts 171°
2026-04-21 13:37 51.52930 -0.79482 4133 ft 220 kts 171°
2026-04-21 13:37 51.51402 -0.79396 3874 ft 219 kts 171°
2026-04-21 13:38 51.49882 -0.79309 3628 ft 219 kts 172°
2026-04-21 13:38 51.48441 -0.78838 3355 ft 204 kts 141°
2026-04-21 13:38 51.47661 -0.77146 3099 ft 186 kts 97°
2026-04-21 13:38 51.47635 -0.75110 2853 ft 183 kts 88°
2026-04-21 13:39 51.47632 -0.73076 2599 ft 181 kts 88°
2026-04-21 13:39 51.47637 -0.71096 2506 ft 173 kts 88°
2026-04-21 13:39 51.47645 -0.69256 2520 ft 156 kts 88°
2026-04-21 13:39 51.47654 -0.67591 2435 ft 145 kts 88°
2026-04-21 13:40 51.47665 -0.66013 2344 ft 140 kts 87°
2026-04-21 13:40 51.47673 -0.64445 2118 ft 140 kts 88°
2026-04-21 13:40 51.47683 -0.62881 1933 ft 141 kts 88°
2026-04-21 13:40 51.47688 -0.61313 1721 ft 140 kts 87°
2026-04-21 13:41 51.47699 -0.59758 1531 ft 140 kts 87°
2026-04-21 13:41 51.47710 -0.58243 1344 ft 131 kts 86°
2026-04-21 13:41 51.47718 -0.56818 1183 ft 127 kts 88°
2026-04-21 13:41 51.47720 -0.55407 1016 ft 125 kts 88°
2026-04-21 13:42 51.47727 -0.54007 811 ft 124 kts 88°
2026-04-21 13:42 51.47736 -0.52623 631 ft 124 kts 89°
2026-04-21 13:42 51.47744 -0.51220 458 ft 126 kts 91°
2026-04-21 13:42 51.47746 -0.49829 307 ft 124 kts 90°
2026-04-21 13:43 51.47751 -0.48425 134 ft 126 kts 90°
2026-04-21 13:43 51.47757 -0.47131 91 ft 101 kts 90°
2026-04-21 13:43 51.47759 -0.46266 88 ft 53 kts 90°
2026-04-21 13:43 51.47760 -0.45796 86 ft 40 kts 90°
2026-04-21 13:44 51.47734 -0.45495 89 ft 22 kts 139°
2026-04-21 13:44 51.47614 -0.45488 88 ft 15 kts 218°
2026-04-21 13:44 51.47596 -0.45663 86 ft 18 kts 269°
2026-04-21 13:44 51.47595 -0.45863 89 ft 17 kts 270°
2026-04-21 13:45 51.47595 -0.46071 89 ft 20 kts 270°
2026-04-21 13:45 51.47593 -0.46306 86 ft 22 kts 269°
2026-04-21 13:45 51.47591 -0.46523 86 ft 15 kts 269°
2026-04-21 13:45 51.47592 -0.46701 86 ft 17 kts 271°
2026-04-21 13:46 51.47584 -0.46892 86 ft 18 kts 266°
2026-04-21 13:46 51.47582 -0.47104 90 ft 20 kts 270°
2026-04-21 13:46 51.47582 -0.47344 86 ft 23 kts 270°
2026-04-21 13:46 51.47581 -0.47559 90 ft 20 kts 270°
2026-04-21 13:47 51.47580 -0.47795 90 ft 22 kts 270°
2026-04-21 13:47 51.47579 -0.48046 88 ft 16 kts 270°
2026-04-21 13:47 51.47579 -0.48171 90 ft 18 kts 270°
2026-04-21 13:47 51.47569 -0.48433 86 ft 16 kts 245°
2026-04-21 13:48 51.47506 -0.48475 86 ft 17 kts 179°
2026-04-21 13:48 51.47401 -0.48475 86 ft 11 kts 180°
2026-04-21 13:48 51.47329 -0.48480 86 ft 6 kts 204°
2026-04-21 13:48 51.47316 -0.48555 86 ft 9 kts 269°
2026-04-21 13:49 51.47316 -0.48588 86 ft 0 kts 269°